Lexington Weather

Lexington, Massachusetts, USA

46°F
10/22/2019 2:02am 
  • Lexington Conditions: Few Clouds
  • Temperature: 46.2°F / 7.9°CWarmer 0.7°F than last hour.
  • Dew Point: 44.6°FIncreased 1.6°Fsince last hour.
  • Relative Humidity: 94%Increased 3.0% since last hour.
  • Wind: Calm, 10-min avg: Calm, gust: None
  • Barometer: 30.12 in Steady
  • Visibility: 10 miles
  • Rain Today: 0.00 in
  •   

Regional Weather Roundup
for Boston, MA

        
000
ASUS41 KBOX 201300
RWRBOX

REGIONAL WEATHER ROUNDUP
NATIONAL WEATHER SERVICE BOSTON/NORTON MA
900 AM EDT SUN OCT 20 2019

NOTE:  "FAIR" INDICATES FEW OR NO CLOUDS BELOW 12,000 FEET WITH NO 
SIGNIFICANT WEATHER AND/OR OBSTRUCTIONS TO VISIBILITY.

MAZALL-201400-
EASTERN MASSACHUSETTS
  
CITY           SKY/WX    TMP DP  RH WIND       PRES   REMARKS
BOSTON         PTSUNNY   48  39  71 CALM      30.09R                  
BEVERLY        FAIR      45  39  79 N3        30.08S                  
LAWRENCE       FAIR      41  37  86 N5        30.12R                  
BEDFORD        PTSUNNY   41  35  79 CALM      30.08S                  
BLUE HILL      NOT AVBL                                               
NORWOOD        FAIR      41  36  82 CALM      30.10R                  
MARSHFIELD     NOT AVBL                                               
PLYMOUTH       FAIR      47  45  93 CALM      30.08R                  
TAUNTON        FAIR      39  36  89 CALM      30.09R                  
NEW BEDFORD    FAIR      44  41  89 CALM      30.08R                  
$$

MAZALL-201400-
CAPE COD AND THE ISLANDS
  
CITY           SKY/WX    TMP DP  RH WIND       PRES   REMARKS
FALMOUTH       SUNNY     48  43  81 CALM      30.07S                  
HYANNIS        NOT AVBL                                               
CHATHAM        NOT AVBL                                               
PROVINCETOWN   FAIR      52  50  93 CALM        N/A                   
NANTUCKET      FAIR      57  52  83 SE7       30.09R                  
MARTHAS VNYRD  FAIR      54  51  90 CALM      30.08R                  
$$
 
MAZALL-201400-
CENTRAL AND WESTERN MASSACHUSETTS
  
CITY           SKY/WX    TMP DP  RH WIND       PRES   REMARKS
WORCESTER      FAIR      44  34  67 NE6       30.07R                  
FITCHBURG      FAIR      40  34  79 CALM      30.11R                  
ORANGE         FAIR      37  33  85 CALM      30.10R                  
SPRINGFIELD    NOT AVBL                                               
WESTFIELD      FAIR      39  35  86 N3        30.09R                  
NORTH ADAMS    FAIR      40  34  79 VRB6      30.06R                  
PITTSFIELD     FAIR      37  33  85 CALM      30.04R                  
$$
 
RIZALL-201400-
RHODE ISLAND
  
CITY           SKY/WX    TMP DP  RH WIND       PRES   REMARKS
PROVIDENCE     PTSUNNY   44  39  82 CALM      30.10R                  
NEWPORT        FAIR      48  44  86 CALM      30.08R                  
BLOCK ISLAND   FAIR      54  48  80 E3        30.09R                  
SMITHFIELD     FAIR     N/A N/A N/A NE6       30.09R                  
WESTERLY       FAIR      45  41  86 NE3       30.09R                  
$$
 
CTZALL-201400-
CONNECTICUT
  
CITY           SKY/WX    TMP DP  RH WIND       PRES   REMARKS
BRADLEY INTL   PTSUNNY   43  36  76 CALM      30.09R                  
HARTFORD       FAIR      41  37  86 VRB3      30.10R                  
BRIDGEPORT     FAIR      46  41  82 N8        30.07R                  
DANBURY        FAIR      40  40 100 CALM      30.08R FOG              
GROTON         NOT AVBL                                               
NEW HAVEN      FAIR      46  40  79 N9        30.08R                  
CHESTER        FAIR      43  41  93 CALM      30.08R                  
MERIDEN        FAIR      41  38  89 CALM      30.10R                  
WILLIMANTIC    FAIR      37  35  92 CALM      30.11R                  
OXFORD         FAIR      43  38  82 CALM      30.08R                  
$$

MEZ002-015-021-024-NHZ003-005-008-011-012-014-VTZ005-008-201400-
NORTHERN NEW ENGLAND
  
CITY           SKY/WX    TMP DP  RH WIND       PRES   REMARKS
PORTLAND ME    PTSUNNY   39  34  82 N5        30.12R                  
BANGOR ME      FAIR      41  36  82 CALM      30.12R                  
CONCORD NH     FAIR      36  33  89 N3        30.11R                  
MANCHESTER NH  PTSUNNY   39  34  82 N7        30.10R                  
NASHUA NH      FAIR      37  35  92 NW5       30.11R                  
PORTSMOUTH NH  PTSUNNY   41  37  83 N5        30.09R                  
JAFFREY NH     FAIR      34  32  92 CALM      30.08R                  
KEENE NH       FAIR      33  33 100 CALM      30.10S                  
BURLINGTON VT  PTSUNNY   38  34  85 CALM      30.05R                  
MT. WASHINGTON NOT AVBL                                               
$$

NYZ052-076-201400-
EASTERN NEW YORK
  
CITY           SKY/WX    TMP DP  RH WIND       PRES   REMARKS
ALBANY         PTSUNNY   40  37  89 SW3       30.06R                  
NEW YORK CITY  PTSUNNY   53  49  86 NE6       30.06R                  
$$
 
ANZALL-201400-
MARINE OBSERVATIONS
  
STATION/POSITION TIME  TEMP    WIND        PRES    VSBY  WAVE
                       AIR SEA DIR/SP/G                  HT/PER
                 (UTC) (F)     (DEG/KT/KT) (MB)    (MI)  (FT/S)
BOSTON BUOY      1150   54 56   60/  4/  4 1017.7          1/13
BUZZARDS BAY     1200   53      40/  7/  8 1018.6R
NANTUCKET SOUND  1230   54 56                N/A
MASS BAY-STELLWA NOT AVBL
ISLE OF SHOALS   1200   49      30/ 11/ 12 1018.5R
S OF BLOCK IS    1230      60                N/A           1/ 9
$$

......................KEY.........................
  SKY/WX - SKY CONDITION/PRESENT WEATHER
  TMP    - TEMPERATURE IN FAHRENHEIT
  DWPT   - DEWPOINT IN FAHRENHEIT
  RH     - RELATIVE HUMIDITY IN PERCENT
  WIND   - DIRECTION AND SPEED IN MPH
  PRES   - MEAN SEA LEVEL PRESSURE IN INCHES OF HG
  WCI    - WIND CHILL INDEX
  VSB    - VISIBILITY IN MILES
  HX     - HEAT INDEX
  TC     - TEMPERATURE IN CELSIUS
  VRB    - VARIABLE WIND DIRECTION
  N/A    - NOT AVAILABLE
  
      

Other recent Regional Weather Roundups

Tue Oct 22, 1:10am

Tue Oct 22, 1:00am

Tue Oct 22, 12:10am

Tue Oct 22, 12:00am

Mon Oct 21, 11:10pm

Mon Oct 21, 11:00pm

Mon Oct 21, 10:10pm

Mon Oct 21, 10:01pm

Mon Oct 21, 9:10pm

Mon Oct 21, 9:00pm

Mon Oct 21, 8:10pm

Mon Oct 21, 8:00pm

Mon Oct 21, 7:10pm

Mon Oct 21, 7:01pm

Mon Oct 21, 6:10pm

Mon Oct 21, 6:01pm

Mon Oct 21, 5:10pm

Mon Oct 21, 5:01pm

Mon Oct 21, 4:10pm

Mon Oct 21, 4:00pm

Mon Oct 21, 3:10pm

Mon Oct 21, 3:01pm

Mon Oct 21, 2:10pm

Mon Oct 21, 2:00pm

Mon Oct 21, 1:10pm

Mon Oct 21, 1:01pm

Mon Oct 21, 12:10pm

Mon Oct 21, 12:00pm

Mon Oct 21, 11:10am

Mon Oct 21, 11:00am

Mon Oct 21, 10:10am

Mon Oct 21, 10:00am

Mon Oct 21, 9:10am

Mon Oct 21, 9:00am

Mon Oct 21, 7:10am

Mon Oct 21, 7:00am

Mon Oct 21, 6:10am

Mon Oct 21, 6:00am

Mon Oct 21, 5:10am

Mon Oct 21, 5:00am

Mon Oct 21, 4:10am

Mon Oct 21, 4:00am

Mon Oct 21, 3:10am

Mon Oct 21, 3:00am

Mon Oct 21, 2:10am

Mon Oct 21, 2:01am

Mon Oct 21, 1:10am

Mon Oct 21, 1:00am

Mon Oct 21, 12:10am

Mon Oct 21, 12:00am

Sun Oct 20, 11:10pm

Sun Oct 20, 11:00pm

Sun Oct 20, 10:10pm

Sun Oct 20, 10:00pm

Sun Oct 20, 9:10pm

Sun Oct 20, 9:01pm

Sun Oct 20, 8:10pm

Sun Oct 20, 8:00pm

Sun Oct 20, 7:10pm

Sun Oct 20, 7:01pm

Sun Oct 20, 6:10pm

Sun Oct 20, 6:00pm

Sun Oct 20, 5:10pm

Sun Oct 20, 5:00pm

Sun Oct 20, 4:10pm

Sun Oct 20, 4:00pm

Sun Oct 20, 3:10pm

Sun Oct 20, 3:00pm

Sun Oct 20, 2:10pm

Sun Oct 20, 2:01pm

Sun Oct 20, 1:10pm

Sun Oct 20, 1:01pm

Sun Oct 20, 12:10pm

Sun Oct 20, 12:00pm

Sun Oct 20, 11:10am

Sun Oct 20, 11:00am

Sun Oct 20, 10:10am

Sun Oct 20, 10:00am

Sun Oct 20, 9:10am

Sun Oct 20, 8:10am

Sun Oct 20, 8:00am

Sun Oct 20, 7:10am

Sun Oct 20, 7:00am

Sun Oct 20, 6:10am

Sun Oct 20, 6:00am

Sun Oct 20, 5:10am

Sun Oct 20, 5:00am

Sun Oct 20, 4:10am

Sun Oct 20, 4:00am

Sun Oct 20, 3:10am

Sun Oct 20, 3:00am

Sun Oct 20, 2:10am

Sun Oct 20, 2:00am

Sun Oct 20, 1:10am

Sun Oct 20, 1:00am

Sun Oct 20, 12:10am

Sun Oct 20, 12:00am

Sat Oct 19, 11:10pm

Sat Oct 19, 11:00pm

Sat Oct 19, 10:10pm

Sat Oct 19, 10:00pm

Sat Oct 19, 9:10pm

Sat Oct 19, 9:00pm

Sat Oct 19, 8:10pm

Sat Oct 19, 8:00pm

Sat Oct 19, 7:10pm

Sat Oct 19, 7:00pm

Sat Oct 19, 6:10pm

Sat Oct 19, 6:00pm

Sat Oct 19, 5:10pm

Sat Oct 19, 5:00pm

Sat Oct 19, 4:10pm

Sat Oct 19, 4:00pm

Sat Oct 19, 3:10pm

Sat Oct 19, 3:01pm

Sat Oct 19, 2:10pm

Sat Oct 19, 2:00pm

Sat Oct 19, 1:10pm

Sat Oct 19, 1:01pm

Sat Oct 19, 12:10pm

Sat Oct 19, 12:00pm

Sat Oct 19, 11:10am

Sat Oct 19, 11:01am

Sat Oct 19, 10:10am

Sat Oct 19, 10:00am

Sat Oct 19, 9:10am

Sat Oct 19, 9:00am

Sat Oct 19, 8:10am

Sat Oct 19, 8:00am

Sat Oct 19, 7:10am

Sat Oct 19, 7:00am

Sat Oct 19, 6:10am

Sat Oct 19, 6:00am

Sat Oct 19, 5:10am

Sat Oct 19, 5:00am

Sat Oct 19, 4:10am

Sat Oct 19, 4:00am

Sat Oct 19, 3:10am

Sat Oct 19, 3:00am

Sat Oct 19, 2:10am

Sat Oct 19, 2:00am

Meta data:

ID: 1de3cdcc-eee3-493d-9cf7-d42697776aac
Link: https://api.weather.gov/products/1de3cdcc-eee3-493d-9cf7-d42697776aac